FLOCK 2B-2

Last updated on Fri Sep 30 2016 10:45:38 GMT+0100 (British Summer Time)

1 40951U 98067HC 16273.87322547 .01378617 15173-2 88197-3 0 9994 2 40951 51.6151 202.8275 0005188 188.1718 171.9215 16.17187644 56655

Satellite not in orbit